| time (UTC) | temp F | wind direction | speed MPH | gust MPH | rain 1hr in | rain 24hr in | rain mn in | humidity % | barometer mb |
| 20260505164030 | 47 | 0 | 0.0 | 3.0 | 0.05 | 1.34 | 0.00 | 95 | 1011.4 |
| 20260505163529 | 47 | 0 | 0.0 | 3.0 | 0.05 | 1.34 | 0.00 | 95 | 1011.2 |
| 20260505163033 | 47 | 0 | 1.0 | 2.0 | 0.05 | 1.34 | 0.00 | 95 | 1011.4 |
| 20260505162529 | 47 | 0 | 2.0 | 2.0 | 0.05 | 1.35 | 0.00 | 96 | 1011.5 |
| 20260505162033 | 46 | 0 | 1.0 | 1.0 | 0.04 | 1.34 | 0.00 | 95 | 1011.4 |
| 20260505161532 | 46 | 0 | 0.0 | 1.0 | 0.04 | 1.35 | 0.00 | 95 | 1011.5 |
| 20260505161030 | 46 | 0 | 0.0 | 1.0 | 0.03 | 1.34 | 0.00 | 95 | 1011.7 |
| 20260505160532 | 46 | 0 | 0.0 | 1.0 | 0.03 | 1.33 | 0.00 | 95 | 1011.7 |
| 20260505153036 | 47 | 0 | 0.0 | 3.0 | 0.00 | 1.31 | 0.00 | 94 | 1011.5 |
| 20260505152533 | 47 | 0 | 0.0 | 4.0 | 0.00 | 1.31 | 0.00 | 93 | 1011.8 |
| 20260505152029 | 47 | 0 | 2.0 | 3.0 | 0.00 | 1.31 | 0.00 | 93 | 1011.5 |
| 20260505151533 | 47 | 0 | 1.0 | 4.0 | 0.00 | 1.31 | 0.00 | 93 | 1011.4 |
| 20260505151030 | 47 | 0 | 3.0 | 4.0 | 0.00 | 1.31 | 0.00 | 93 | 1011.4 |
| 20260505150538 | 48 | 0 | 1.0 | 2.0 | 0.00 | 1.31 | 0.00 | 94 | 1011.5 |
| 20260505140533 | 46 | 0 | 0.0 | 3.0 | 0.03 | 1.31 | 0.00 | 93 | 1011.8 |
| 20260505125029 | 46 | 0 | 2.0 | 3.0 | 0.01 | 1.27 | 0.00 | 92 | 1011.8 |
| 20260505124530 | 46 | 0 | 2.0 | 2.0 | 0.01 | 1.27 | 0.00 | 92 | 1011.8 |
| 20260505124030 | 46 | 0 | 0.0 | 2.0 | 0.00 | 1.26 | 0.00 | 92 | 1011.8 |
| 20260505123530 | 46 | 0 | 0.0 | 3.0 | 0.00 | 1.26 | 0.00 | 92 | 1011.7 |
| 20260505123033 | 46 | 0 | 1.0 | 2.0 | 0.00 | 1.26 | 0.00 | 92 | 1011.7 |
| 20260505122533 | 46 | 0 | 1.0 | 2.0 | 0.00 | 1.26 | 0.00 | 92 | 1011.7 |
| 20260505122033 | 46 | 0 | 1.0 | 3.0 | 0.00 | 1.25 | 0.00 | 92 | 1011.7 |
| 20260505121529 | 46 | 0 | 2.0 | 2.0 | 0.00 | 1.25 | 0.00 | 91 | 1011.8 |
| 20260505121033 | 46 | 0 | 2.0 | 3.0 | 0.00 | 1.25 | 0.00 | 92 | 1011.7 |
| 20260505120533 | 46 | 0 | 1.0 | 3.0 | 0.00 | 1.25 | 0.00 | 92 | 1011.7 |
| 20260505120035 | 46 | 0 | 1.0 | 1.0 | 0.00 | 1.25 | 0.00 | 92 | 1011.6 |
| 20260505115532 | 46 | 0 | 1.0 | 1.0 | 0.00 | 1.25 | 0.00 | 91 | 1011.8 |
| 20260505115029 | 46 | 0 | 0.0 | 1.0 | 0.00 | 1.25 | 0.00 | 91 | 1011.7 |
| 20260505114535 | 46 | 0 | 0.0 | 2.0 | 0.00 | 1.25 | 0.00 | 92 | 1011.8 |
| 20260505114029 | 46 | 0 | 1.0 | 3.0 | 0.00 | 1.25 | 0.00 | 92 | 1011.6 |
| 20260505113530 | 45 | 0 | 2.0 | 3.0 | 0.00 | 1.25 | 0.00 | 92 | 1011.6 |
| 20260505113029 | 45 | 0 | 1.0 | 2.0 | 0.00 | 1.25 | 0.00 | 91 | 1011.6 |
| 20260505112535 | 45 | 0 | 1.0 | 2.0 | 0.00 | 1.25 | 0.00 | 91 | 1011.7 |
| 20260505112029 | 45 | 0 | 0.0 | 2.0 | 0.00 | 1.25 | 0.00 | 92 | 1011.7 |
| 20260505111533 | 45 | 0 | 0.0 | 2.0 | 0.00 | 1.25 | 0.00 | 92 | 1011.8 |
| 20260505111029 | 45 | 0 | 1.0 | 2.0 | 0.00 | 1.25 | 0.00 | 92 | 1011.8 |
| 20260505110532 | 45 | 0 | 0.0 | 1.0 | 0.00 | 1.25 | 0.00 | 92 | 1012.0 |
| 20260505102029 | 44 | 0 | 0.0 | 2.0 | 0.00 | 1.25 | 0.00 | 94 | 1012.0 |
| 20260505101532 | 44 | 0 | 0.0 | 2.0 | 0.00 | 1.25 | 0.00 | 94 | 1011.9 |
| 20260505101029 | 44 | 0 | 1.0 | 3.0 | 0.00 | 1.25 | 0.00 | 94 | 1011.9 |
| 20260505100529 | 44 | 0 | 0.0 | 2.0 | 0.00 | 1.25 | 0.00 | 94 | 1011.8 |
| 20260505100029 | 44 | 0 | 0.0 | 3.0 | 0.01 | 1.25 | 0.00 | 94 | 1011.8 |
| 20260505095532 | 44 | 0 | 0.0 | 2.0 | 0.00 | 1.24 | 0.00 | 94 | 1011.9 |
| 20260505095033 | 44 | 0 | 1.0 | 1.0 | 0.00 | 1.24 | 0.00 | 94 | 1011.9 |
| 20260505094536 | 43 | 0 | 1.0 | 2.0 | 0.00 | 1.24 | 0.00 | 94 | 1011.9 |
| 20260505094032 | 43 | 0 | 2.0 | 3.0 | 0.00 | 1.24 | 0.00 | 94 | 1011.8 |
| 20260505093535 | 44 | 0 | 2.0 | 3.0 | 0.00 | 1.24 | 0.00 | 94 | 1011.8 |
| 20260505093029 | 44 | 0 | 1.0 | 3.0 | 0.00 | 1.24 | 0.00 | 94 | 1011.6 |
| 20260505092535 | 44 | 0 | 1.0 | 5.0 | 0.00 | 1.24 | 0.00 | 94 | 1011.6 |
| 20260505092029 | 44 | 0 | 3.0 | 5.0 | 0.00 | 1.24 | 0.00 | 94 | 1011.5 |
| 20260505091529 | 45 | 0 | 1.0 | 4.0 | 0.00 | 1.24 | 0.00 | 95 | 1011.6 |
| 20260505091030 | 45 | 0 | 2.0 | 3.0 | 0.00 | 1.24 | 0.00 | 95 | 1011.5 |
| 20260505090532 | 44 | 0 | 1.0 | 3.0 | 0.00 | 1.24 | 0.00 | 95 | 1011.5 |
| 20260505090036 | 44 | 0 | 2.0 | 3.0 | 0.00 | 1.23 | 0.00 | 95 | 1011.5 |
| 20260505085532 | 44 | 0 | 3.0 | 3.0 | 0.00 | 1.23 | 0.00 | 95 | 1011.5 |
| 20260505085035 | 43 | 0 | 0.0 | 3.0 | 0.00 | 1.23 | 0.00 | 95 | 1011.4 |
| 20260505084535 | 44 | 0 | 0.0 | 2.0 | 0.00 | 1.23 | 0.00 | 95 | 1011.4 |
| 20260505084035 | 43 | 0 | 0.0 | 3.0 | 0.00 | 1.23 | 0.00 | 95 | 1011.4 |
| 20260505083533 | 43 | 0 | 0.0 | 3.0 | 0.00 | 1.23 | 0.00 | 95 | 1011.4 |
| 20260505083033 | 44 | 0 | 2.0 | 4.0 | 0.00 | 1.23 | 0.00 | 95 | 1011.3 |
| 20260505082539 | 44 | 0 | 2.0 | 4.0 | 0.00 | 1.23 | 0.00 | 96 | 1011.3 |
| 20260505082032 | 44 | 0 | 1.0 | 2.0 | 0.00 | 1.23 | 0.00 | 96 | 1011.1 |
| 20260505081529 | 44 | 0 | 1.0 | 2.0 | 0.00 | 1.23 | 0.00 | 96 | 1011.2 |
| 20260505081030 | 43 | 0 | 1.0 | 2.0 | 0.00 | 1.23 | 0.00 | 96 | 1011.3 |
| 20260505080529 | 43 | 0 | 1.0 | 3.0 | 0.00 | 1.23 | 0.00 | 96 | 1011.3 |
| 20260505080029 | 43 | 0 | 1.0 | 3.0 | 0.00 | 1.23 | 0.00 | 96 | 1011.2 |
| 20260505075532 | 43 | 0 | 1.0 | 1.0 | 0.00 | 1.23 | 0.00 | 96 | 1011.3 |
| 20260505075033 | 43 | 0 | 1.0 | 2.0 | 0.00 | 1.23 | 0.00 | 96 | 1011.4 |
| 20260505074529 | 43 | 0 | 0.0 | 2.0 | 0.00 | 1.23 | 0.00 | 96 | 1011.3 |
| 20260505074035 | 43 | 0 | 0.0 | 1.0 | 0.00 | 1.23 | 0.00 | 96 | 1011.4 |
| 20260505073530 | 43 | 0 | 0.0 | 2.0 | 0.00 | 1.23 | 0.00 | 96 | 1011.4 |
| 20260505073035 | 43 | 0 | 2.0 | 2.0 | 0.01 | 1.23 | 0.00 | 96 | 1011.4 |
| 20260505072538 | 43 | 0 | 2.0 | 2.0 | 0.03 | 1.23 | 0.00 | 96 | 1011.4 |
| 20260505072032 | 42 | 0 | 1.0 | 3.0 | 0.04 | 1.23 | 0.00 | 96 | 1011.4 |
| 20260505071538 | 42 | 0 | 1.0 | 1.0 | 0.04 | 1.23 | 0.00 | 96 | 1011.3 |
| 20260505071036 | 42 | 0 | 1.0 | 1.0 | 0.04 | 1.23 | 0.00 | 96 | 1011.2 |
| 20260505070530 | 42 | 0 | 0.0 | 1.0 | 0.04 | 1.23 | 0.00 | 96 | 1011.5 |
| 20260505070033 | 42 | 0 | 1.0 | 3.0 | 0.04 | 1.23 | 0.00 | 96 | 1011.4 |
| 20260505065529 | 43 | 0 | 1.0 | 3.0 | 0.04 | 1.23 | 0.00 | 96 | 1011.2 |
| 20260505065036 | 42 | 0 | 1.0 | 2.0 | 0.04 | 1.23 | 0.00 | 96 | 1011.2 |
| 20260505064532 | 42 | 0 | 1.0 | 1.0 | 0.04 | 1.23 | 0.00 | 96 | 1011.2 |
| 20260505064036 | 42 | 0 | 0.0 | 1.0 | 0.04 | 1.23 | 0.00 | 96 | 1011.2 |
| 20260505063532 | 42 | 0 | 0.0 | 0.0 | 0.03 | 1.22 | 0.00 | 96 | 1011.2 |
| 20260505063029 | 42 | 0 | 0.0 | 0.0 | 0.03 | 1.22 | 0.00 | 96 | 1011.3 |
| 20260505062532 | 42 | 0 | 0.0 | 1.0 | 0.01 | 1.20 | 0.00 | 96 | 1011.4 |
| 20260505062029 | 42 | 0 | 0.0 | 1.0 | 0.00 | 1.18 | 0.00 | 96 | 1011.4 |
| 20260505061530 | 42 | 0 | 0.0 | 1.0 | 0.00 | 1.18 | 0.00 | 96 | 1011.2 |
| 20260505061035 | 42 | 0 | 0.0 | 1.0 | 0.00 | 1.18 | 0.00 | 96 | 1011.2 |
| 20260505060529 | 42 | 0 | 0.0 | 1.0 | 0.00 | 1.18 | 0.00 | 96 | 1010.8 |
| 20260505060029 | 42 | 0 | 0.0 | 1.0 | 0.00 | 1.18 | 0.00 | 96 | 1010.9 |
| 20260505055535 | 42 | 0 | 0.0 | 1.0 | 0.00 | 1.18 | 0.00 | 96 | 1010.9 |
| 20260505055030 | 42 | 0 | 0.0 | 1.0 | 0.00 | 1.18 | 0.00 | 96 | 1011.0 |
| 20260505054536 | 42 | 0 | 0.0 | 1.0 | 0.00 | 1.18 | 0.00 | 96 | 1011.1 |
| 20260505054032 | 42 | 0 | 0.0 | 1.0 | 0.00 | 1.18 | 0.00 | 96 | 1011.0 |
| 20260505053533 | 42 | 0 | 0.0 | 1.0 | 0.00 | 1.18 | 0.00 | 96 | 1010.8 |
| 20260505053029 | 42 | 0 | 0.0 | 1.0 | 0.00 | 1.18 | 0.00 | 96 | 1010.8 |
| 20260505052533 | 42 | 0 | 0.0 | 1.0 | 0.00 | 1.18 | 0.00 | 96 | 1010.7 |
| 20260505052032 | 42 | 0 | 0.0 | 1.0 | 0.00 | 1.18 | 0.00 | 96 | 1010.8 |
| 20260505051533 | 42 | 0 | 0.0 | 1.0 | 0.00 | 1.18 | 0.00 | 96 | 1010.8 |
| 20260505051036 | 42 | 0 | 1.0 | 1.0 | 0.00 | 1.18 | 0.00 | 96 | 1010.7 |
| 20260505050529 | 41 | 0 | 0.0 | 0.0 | 0.00 | 1.18 | 0.00 | 96 | 1010.8 |
| 20260505041529 | 42 | 0 | 0.0 | 0.0 | 0.00 | 1.18 | 0.00 | 96 | 1011.3 |
| 20260505041035 | 41 | 0 | 0.0 | 0.0 | 0.00 | 1.18 | 0.00 | 96 | 1011.4 |
| 20260505040535 | 41 | 0 | 0.0 | 0.0 | 0.01 | 1.18 | 0.00 | 96 | 1011.3 |
| 20260505040036 | 41 | 0 | 0.0 | 0.0 | 0.02 | 1.18 | 0.00 | 96 | 1011.5 |
| 20260505035530 | 41 | 0 | 0.0 | 1.0 | 0.05 | 1.18 | 0.00 | 95 | 1011.5 |
| 20260505035032 | 41 | 0 | 0.0 | 1.0 | 0.08 | 1.18 | 0.00 | 95 | 1011.5 |
| 20260505034529 | 41 | 0 | 0.0 | 2.0 | 0.12 | 1.18 | 0.00 | 95 | 1011.7 |
| 20260505034029 | 41 | 0 | 1.0 | 1.0 | 0.15 | 1.18 | 0.00 | 95 | 1011.6 |
| 20260505033536 | 41 | 0 | 0.0 | 1.0 | 0.20 | 1.18 | 0.00 | 95 | 1011.6 |
| 20260505033033 | 41 | 0 | 0.0 | 1.0 | 0.23 | 1.18 | 0.00 | 95 | 1011.8 |
| 20260505032532 | 41 | 0 | 1.0 | 1.0 | 0.26 | 1.18 | 0.00 | 95 | 1011.8 |
| 20260505032032 | 42 | 0 | 0.0 | 1.0 | 0.28 | 1.17 | 0.00 | 95 | 1011.9 |
| 20260505031533 | 41 | 0 | 0.0 | 1.0 | 0.30 | 1.17 | 0.00 | 95 | 1012.0 |
| 20260505031033 | 41 | 0 | 0.0 | 2.0 | 0.32 | 1.17 | 0.00 | 95 | 1011.9 |
| 20260505030535 | 42 | 0 | 0.0 | 3.0 | 0.33 | 1.16 | 0.00 | 95 | 1011.8 |
| 20260505030032 | 42 | 0 | 2.0 | 3.0 | 0.35 | 1.15 | 0.00 | 95 | 1011.8 |
| 20260505025529 | 43 | 0 | 1.0 | 2.0 | 0.34 | 1.12 | 0.00 | 95 | 1012.4 |
| 20260505025029 | 43 | 0 | 0.0 | 0.0 | 0.33 | 1.09 | 0.00 | 95 | 1013.0 |
| 20260505024529 | 43 | 0 | 0.0 | 1.0 | 0.29 | 1.05 | 0.00 | 96 | 1013.0 |
| 20260505024032 | 43 | 0 | 0.0 | 1.0 | 0.29 | 1.02 | 0.00 | 96 | 1012.9 |
| 20260505023535 | 43 | 0 | 0.0 | 0.0 | 0.26 | 0.97 | 0.00 | 95 | 1013.2 |
| 20260505023032 | 43 | 0 | 0.0 | 1.0 | 0.25 | 0.94 | 0.00 | 95 | 1013.3 |
| 20260505022532 | 43 | 0 | 0.0 | 1.0 | 0.25 | 0.91 | 0.00 | 96 | 1013.4 |
| 20260505022029 | 43 | 0 | 0.0 | 1.0 | 0.25 | 0.88 | 0.00 | 96 | 1013.4 |
| 20260505021530 | 43 | 0 | 1.0 | 1.0 | 0.24 | 0.86 | 0.00 | 95 | 1013.4 |
| 20260505021040 | 43 | 0 | 1.0 | 1.0 | 0.25 | 0.85 | 0.00 | 95 | 1013.3 |
| 20260505020529 | 43 | 0 | 0.0 | 0.0 | 0.25 | 0.82 | 0.00 | 96 | 1013.2 |
| 20260505020029 | 43 | 0 | 0.0 | 1.0 | 0.24 | 0.80 | 0.00 | 95 | 1013.3 |
| 20260505015534 | 43 | 0 | 0.0 | 0.0 | 0.23 | 0.77 | 0.00 | 95 | 1013.4 |
| 20260505015029 | 43 | 0 | 0.0 | 0.0 | 0.22 | 0.76 | 0.00 | 95 | 1013.3 |
| 20260505014535 | 43 | 0 | 0.0 | 1.0 | 0.23 | 0.75 | 0.00 | 95 | 1013.4 |
| 20260505014032 | 43 | 0 | 0.0 | 0.0 | 0.22 | 0.73 | 0.00 | 95 | 1013.3 |
| 20260505013529 | 43 | 0 | 0.0 | 1.0 | 0.20 | 0.70 | 0.00 | 95 | 1013.2 |
| 20260505013032 | 43 | 0 | 0.0 | 1.0 | 0.18 | 0.68 | 0.00 | 95 | 1013.3 |
| 20260505012529 | 44 | 0 | 1.0 | 1.0 | 0.14 | 0.65 | 0.00 | 95 | 1013.5 |
| 20260505012032 | 44 | 0 | 0.0 | 0.0 | 0.14 | 0.63 | 0.00 | 95 | 1013.5 |
| 20260505011529 | 44 | 0 | 0.0 | 0.0 | 0.12 | 0.62 | 0.00 | 95 | 1013.6 |
| 20260505011029 | 44 | 0 | 0.0 | 0.0 | 0.10 | 0.59 | 0.00 | 95 | 1013.8 |
| 20260505010530 | 44 | 0 | 0.0 | 0.0 | 0.07 | 0.57 | 0.00 | 95 | 1013.8 |
| 20260505010032 | 43 | 0 | 0.0 | 1.0 | 0.06 | 0.55 | 0.00 | 95 | 1014.0 |
| 20260505005535 | 43 | 0 | 0.0 | 1.0 | 0.04 | 0.54 | 0.00 | 95 | 1014.0 |
| 20260505005033 | 43 | 0 | 0.0 | 1.0 | 0.03 | 0.53 | 0.00 | 95 | 1014.0 |
| 20260505004529 | 43 | 0 | 0.0 | 1.0 | 0.03 | 0.51 | 0.00 | 95 | 1014.2 |
| 20260505004032 | 43 | 0 | 0.0 | 1.0 | 0.02 | 0.51 | 0.00 | 95 | 1014.1 |
| 20260505003529 | 43 | 0 | 0.0 | 1.0 | 0.01 | 0.50 | 0.00 | 95 | 1014.2 |
| 20260505003033 | 43 | 0 | 1.0 | 2.0 | 0.01 | 0.50 | 0.00 | 95 | 1014.3 |
| 20260505002536 | 43 | 0 | 1.0 | 1.0 | 0.01 | 0.50 | 0.00 | 95 | 1014.4 |
| 20260505002029 | 43 | 0 | 1.0 | 3.0 | 0.01 | 0.49 | 0.00 | 95 | 1014.4 |
| 20260505001530 | 43 | 0 | 0.0 | 2.0 | 0.03 | 0.49 | 0.00 | 95 | 1014.5 |
| 20260505001033 | 44 | 0 | 0.0 | 0.0 | 0.04 | 0.49 | 0.00 | 95 | 1014.7 |
| 20260505000532 | 44 | 0 | 0.0 | 1.0 | 0.06 | 0.49 | 0.00 | 95 | 1014.7 |
| 20260505000032 | 44 | 0 | 0.0 | 1.0 | 0.07 | 0.49 | 0.00 | 95 | 1014.9 |
| 20260504235532 | 44 | 0 | 0.0 | 1.0 | 0.07 | 0.49 | 0.00 | 95 | 1014.8 |
| 20260504235029 | 44 | 0 | 0.0 | 1.0 | 0.09 | 0.49 | 0.00 | 95 | 1015.0 |
| 20260504234535 | 44 | 0 | 0.0 | 2.0 | 0.09 | 0.48 | 0.00 | 95 | 1015.1 |
| 20260504234032 | 44 | 0 | 1.0 | 2.0 | 0.10 | 0.48 | 0.00 | 95 | 1015.3 |
| 20260504233532 | 44 | 0 | 0.0 | 1.0 | 0.10 | 0.48 | 0.00 | 95 | 1015.4 |
| 20260504233030 | 44 | 0 | 1.0 | 1.0 | 0.11 | 0.48 | 0.00 | 95 | 1015.4 |
| 20260504232529 | 44 | 0 | 0.0 | 0.0 | 0.11 | 0.48 | 0.00 | 95 | 1015.5 |
| 20260504232036 | 44 | 0 | 0.0 | 1.0 | 0.12 | 0.48 | 0.00 | 95 | 1015.8 |
| 20260504231530 | 44 | 0 | 0.0 | 1.0 | 0.11 | 0.46 | 0.00 | 94 | 1015.7 |
| 20260504231032 | 44 | 0 | 1.0 | 1.0 | 0.11 | 0.44 | 0.00 | 94 | 1015.8 |
| 20260504230533 | 44 | 0 | 1.0 | 2.0 | 0.11 | 0.43 | 0.00 | 95 | 1016.0 |
| 20260504230032 | 44 | 0 | 0.0 | 0.0 | 0.11 | 0.42 | 0.00 | 95 | 1016.0 |
| 20260504225529 | 44 | 0 | 0.0 | 1.0 | 0.11 | 0.41 | 0.00 | 95 | 1016.1 |
| 20260504225035 | 44 | 0 | 0.0 | 1.0 | 0.10 | 0.40 | 0.00 | 95 | 1016.1 |
| 20260504224532 | 44 | 0 | 0.0 | 1.0 | 0.09 | 0.39 | 0.00 | 94 | 1016.2 |
| 20260504224029 | 44 | 0 | 1.0 | 2.0 | 0.08 | 0.38 | 0.00 | 94 | 1016.2 |
| 20260504223529 | 44 | 0 | 0.0 | 2.0 | 0.08 | 0.38 | 0.00 | 94 | 1016.3 |
| 20260504223035 | 44 | 0 | 0.0 | 2.0 | 0.07 | 0.37 | 0.00 | 94 | 1016.4 |
| 20260504222533 | 45 | 0 | 1.0 | 3.0 | 0.07 | 0.37 | 0.00 | 94 | 1016.3 |
| 20260504222033 | 45 | 0 | 0.0 | 3.0 | 0.05 | 0.35 | 0.00 | 94 | 1016.3 |
| 20260504221529 | 45 | 0 | 1.0 | 1.0 | 0.04 | 0.34 | 0.00 | 94 | 1016.5 |
| 20260504221029 | 45 | 0 | 0.0 | 1.0 | 0.03 | 0.33 | 0.00 | 94 | 1016.6 |
| 20260504220532 | 45 | 0 | 0.0 | 1.0 | 0.03 | 0.32 | 0.00 | 94 | 1016.6 |
| 20260504220029 | 45 | 0 | 0.0 | 1.0 | 0.02 | 0.31 | 0.00 | 94 | 1016.6 |
| 20260504215532 | 45 | 0 | 0.0 | 1.0 | 0.00 | 0.29 | 0.00 | 94 | 1016.9 |
| 20260504215029 | 45 | 0 | 0.0 | 0.0 | 0.00 | 0.29 | 0.00 | 94 | 1016.9 |
| 20260504214535 | 45 | 0 | 0.0 | 0.0 | 0.02 | 0.29 | 0.00 | 94 | 1016.9 |
| 20260504214029 | 45 | 0 | 0.0 | 1.0 | 0.03 | 0.29 | 0.00 | 94 | 1016.7 |
| 20260504213532 | 45 | 0 | 1.0 | 2.0 | 0.03 | 0.29 | 0.00 | 94 | 1016.9 |
| 20260504213032 | 45 | 0 | 0.0 | 0.0 | 0.03 | 0.29 | 0.00 | 94 | 1016.9 |
| 20260504212532 | 45 | 0 | 0.0 | 1.0 | 0.04 | 0.29 | 0.00 | 94 | 1017.0 |
| 20260504212032 | 45 | 0 | 0.0 | 1.0 | 0.04 | 0.29 | 0.00 | 93 | 1017.2 |
| 20260504211529 | 45 | 0 | 1.0 | 1.0 | 0.04 | 0.29 | 0.00 | 94 | 1017.1 |
| 20260504211038 | 45 | 0 | 0.0 | 1.0 | 0.04 | 0.29 | 0.00 | 94 | 1017.1 |
| 20260504210533 | 45 | 0 | 0.0 | 1.0 | 0.03 | 0.29 | 0.00 | 94 | 1017.1 |
| 20260504210029 | 45 | 0 | 0.0 | 1.0 | 0.04 | 0.29 | 0.00 | 94 | 1017.2 |
| 20260504205532 | 45 | 0 | 1.0 | 1.0 | 0.04 | 0.29 | 0.00 | 94 | 1017.2 |
| 20260504205029 | 45 | 0 | 1.0 | 1.0 | 0.05 | 0.29 | 0.00 | 93 | 1017.2 |
| 20260504204536 | 45 | 0 | 0.0 | 1.0 | 0.05 | 0.27 | 0.00 | 93 | 1017.2 |
| 20260504204038 | 45 | 0 | 0.0 | 1.0 | 0.06 | 0.26 | 0.00 | 93 | 1017.2 |
| 20260504203529 | 45 | 0 | 0.0 | 1.0 | 0.06 | 0.25 | 0.00 | 93 | 1017.1 |
| 20260504203038 | 45 | 0 | 0.0 | 1.0 | 0.08 | 0.25 | 0.00 | 93 | 1017.3 |
| 20260504202538 | 45 | 0 | 0.0 | 2.0 | 0.09 | 0.25 | 0.00 | 93 | 1017.5 |
| 20260504202029 | 45 | 0 | 0.0 | 1.0 | 0.10 | 0.25 | 0.00 | 93 | 1017.3 |
| 20260504201529 | 45 | 0 | 1.0 | 2.0 | 0.11 | 0.25 | 0.00 | 92 | 1017.3 |
| 20260504201032 | 45 | 0 | 0.0 | 2.0 | 0.11 | 0.25 | 0.00 | 92 | 1017.4 |
| 20260504200530 | 46 | 0 | 2.0 | 4.0 | 0.11 | 0.25 | 0.00 | 93 | 1017.3 |
| 20260504200032 | 46 | 0 | 0.0 | 1.0 | 0.11 | 0.24 | 0.00 | 93 | 1017.2 |
| 20260504195533 | 46 | 0 | 0.0 | 2.0 | 0.11 | 0.24 | 0.00 | 93 | 1017.2 |
| 20260504195029 | 46 | 0 | 0.0 | 1.0 | 0.10 | 0.23 | 0.00 | 93 | 1017.3 |
| 20260504194530 | 46 | 0 | 0.0 | 1.0 | 0.08 | 0.22 | 0.00 | 93 | 1017.3 |
| 20260504194035 | 46 | 0 | 0.0 | 1.0 | 0.07 | 0.20 | 0.00 | 93 | 1017.2 |
| 20260504193529 | 46 | 0 | 0.0 | 1.0 | 0.06 | 0.19 | 0.00 | 93 | 1017.3 |
| 20260504193032 | 46 | 0 | 1.0 | 1.0 | 0.04 | 0.17 | 0.00 | 93 | 1017.4 |
| 20260504192529 | 46 | 0 | 0.0 | 1.0 | 0.03 | 0.15 | 0.00 | 93 | 1017.5 |
| 20260504192029 | 46 | 0 | 0.0 | 0.0 | 0.02 | 0.14 | 0.00 | 93 | 1017.4 |
| 20260504191530 | 46 | 0 | 0.0 | 1.0 | 0.02 | 0.14 | 0.00 | 93 | 1017.4 |
| 20260504191033 | 46 | 0 | 0.0 | 1.0 | 0.02 | 0.13 | 0.00 | 93 | 1017.4 |
| 20260504190532 | 46 | 0 | 0.0 | 1.0 | 0.02 | 0.13 | 0.00 | 93 | 1017.2 |
| 20260504190029 | 46 | 0 | 1.0 | 1.0 | 0.03 | 0.13 | 0.00 | 92 | 1017.1 |
| 20260504185536 | 46 | 0 | 0.0 | 1.0 | 0.04 | 0.13 | 0.00 | 92 | 1017.1 |
| 20260504185029 | 46 | 0 | 1.0 | 1.0 | 0.05 | 0.13 | 0.00 | 92 | 1017.3 |
| 20260504184533 | 46 | 0 | 0.0 | 2.0 | 0.06 | 0.13 | 0.00 | 92 | 1017.0 |
| 20260504184030 | 46 | 0 | 0.0 | 1.0 | 0.07 | 0.13 | 0.00 | 92 | 1016.9 |
| 20260504183532 | 46 | 0 | 0.0 | 1.0 | 0.07 | 0.13 | 0.00 | 92 | 1017.0 |
| 20260504183035 | 47 | 0 | 0.0 | 1.0 | 0.07 | 0.12 | 0.00 | 92 | 1017.0 |
| 20260504182529 | 47 | 0 | 0.0 | 1.0 | 0.07 | 0.12 | 0.00 | 92 | 1017.0 |
| 20260504182029 | 47 | 0 | 2.0 | 2.0 | 0.07 | 0.12 | 0.00 | 92 | 1016.9 |
| 20260504181535 | 47 | 0 | 1.0 | 2.0 | 0.07 | 0.11 | 0.00 | 92 | 1016.8 |
| 20260504181032 | 47 | 0 | 1.0 | 2.0 | 0.06 | 0.11 | 0.00 | 91 | 1016.9 |
| 20260504180529 | 47 | 0 | 2.0 | 2.0 | 0.07 | 0.11 | 0.00 | 91 | 1017.1 |
| 20260504180036 | 47 | 0 | 0.0 | 1.0 | 0.07 | 0.10 | 0.00 | 91 | 1017.3 |
| 20260504175530 | 47 | 0 | 0.0 | 1.0 | 0.05 | 0.08 | 0.00 | 91 | 1017.2 |
| 20260504175029 | 47 | 0 | 1.0 | 2.0 | 0.04 | 0.07 | 0.00 | 91 | 1017.1 |
| 20260504174535 | 47 | 0 | 0.0 | 1.0 | 0.03 | 0.07 | 0.00 | 90 | 1017.1 |
| 20260504174030 | 47 | 0 | 0.0 | 2.0 | 0.03 | 0.06 | 0.00 | 90 | 1017.2 |
| 20260504173533 | 47 | 0 | 1.0 | 2.0 | 0.03 | 0.05 | 0.00 | 89 | 1017.1 |
| 20260504173029 | 47 | 0 | 1.0 | 2.0 | 0.03 | 0.05 | 0.00 | 89 | 1016.9 |
| 20260504172529 | 48 | 0 | 1.0 | 2.0 | 0.03 | 0.04 | 0.00 | 89 | 1017.1 |
| 20260504172038 | 48 | 0 | 1.0 | 2.0 | 0.03 | 0.04 | 0.00 | 89 | 1017.0 |
| 20260504171535 | 48 | 0 | 0.0 | 2.0 | 0.03 | 0.04 | 0.00 | 89 | 1017.0 |
| 20260504171029 | 48 | 0 | 1.0 | 1.0 | 0.03 | 0.04 | 0.00 | 89 | 1017.1 |
| 20260504170535 | 48 | 0 | 1.0 | 2.0 | 0.03 | 0.03 | 0.00 | 88 | 1017.2 |